TimeEST,TemperatureF,Dew PointF,Humidity,Sea Level PressureIn,VisibilityMPH,Wind Direction,Wind SpeedMPH,Gust SpeedMPH,PrecipitationIn,Events,Conditions,WindDirDegrees,DateUTC
12:10 AM,33.8,28.4,81,30.09,10.0,West,8.1,-,N/A,,Scattered Clouds,280,2012-12-28 05:10:00
1:35 AM,33.8,26.6,75,30.10,10.0,NNW,6.9,-,N/A,,Overcast,330,2012-12-28 06:35:00
1:57 AM,32.0,26.6,80,30.11,10.0,NW,5.8,-,N/A,,Overcast,310,2012-12-28 06:57:00
2:18 AM,32.0,26.6,80,30.11,10.0,NW,9.2,21.9,N/A,,Mostly Cloudy,320,2012-12-28 07:18:00
2:39 AM,32.0,26.6,80,30.12,10.0,NW,4.6,-,N/A,,Overcast,320,2012-12-28 07:39:00
3:01 AM,32.0,26.6,80,30.12,10.0,NNW,6.9,-,N/A,,Mostly Cloudy,340,2012-12-28 08:01:00
3:22 AM,32.0,26.6,80,30.12,10.0,Calm,Calm,-,N/A,,Overcast,0,2012-12-28 08:22:00
3:43 AM,32.0,26.6,80,30.14,10.0,WNW,6.9,-,N/A,,Overcast,300,2012-12-28 08:43:00
4:05 AM,32.0,26.6,80,30.14,10.0,WNW,3.5,-,N/A,,Overcast,300,2012-12-28 09:05:00
4:26 AM,32.0,26.6,80,30.14,10.0,WNW,4.6,16.1,N/A,,Overcast,290,2012-12-28 09:26:00
4:47 AM,32.0,26.6,80,30.13,10.0,West,3.5,-,N/A,,Overcast,280,2012-12-28 09:47:00
5:08 AM,32.0,26.6,80,30.13,10.0,NW,5.8,-,N/A,,Overcast,310,2012-12-28 10:08:00
5:30 AM,32.0,26.6,80,30.15,10.0,NW,4.6,-,N/A,,Mostly Cloudy,310,2012-12-28 10:30:00
5:51 AM,32.0,26.6,80,30.15,10.0,WNW,3.5,-,N/A,,Scattered Clouds,290,2012-12-28 10:51:00
6:12 AM,32.0,26.6,80,30.16,10.0,NW,4.6,-,N/A,,Mostly Cloudy,320,2012-12-28 11:12:00
6:34 AM,32.0,26.6,80,30.16,10.0,Calm,Calm,-,N/A,,Mostly Cloudy,0,2012-12-28 11:34:00
6:55 AM,32.0,26.6,80,30.16,10.0,Calm,Calm,-,N/A,,Mostly Cloudy,0,2012-12-28 11:55:00
7:16 AM,32.0,26.6,80,30.17,10.0,Calm,Calm,-,N/A,,Mostly Cloudy,0,2012-12-28 12:16:00
7:37 AM,32.0,26.6,80,30.15,10.0,North,4.6,-,N/A,,Mostly Cloudy,360,2012-12-28 12:37:00
7:59 AM,32.0,26.6,80,30.14,10.0,WNW,5.8,-,N/A,,Scattered Clouds,300,2012-12-28 12:59:00
8:20 AM,32.0,26.6,80,30.16,10.0,Calm,Calm,-,N/A,,Scattered Clouds,0,2012-12-28 13:20:00
8:41 AM,32.0,26.6,80,30.15,10.0,Calm,Calm,-,N/A,,Scattered Clouds,0,2012-12-28 13:41:00
9:02 AM,32.0,26.6,80,30.16,10.0,NNE,3.5,-,N/A,,Clear,20,2012-12-28 14:02:00
9:24 AM,32.0,26.6,80,30.17,10.0,Calm,Calm,-,N/A,,Clear,0,2012-12-28 14:24:00
9:44 AM,32.0,26.6,80,30.18,10.0,NE,3.5,-,N/A,,Clear,40,2012-12-28 14:44:00
10:06 AM,32.0,26.6,80,30.17,10.0,NE,3.5,-,N/A,,Clear,40,2012-12-28 15:06:00
10:27 AM,32.0,24.8,75,30.17,10.0,Calm,Calm,-,N/A,,Clear,0,2012-12-28 15:27:00
10:49 AM,33.8,26.6,75,30.17,10.0,Calm,Calm,-,N/A,,Clear,0,2012-12-28 15:49:00
11:10 AM,33.8,26.6,75,30.15,10.0,North,5.8,-,N/A,,Clear,10,2012-12-28 16:10:00
11:31 AM,35.6,26.6,70,30.15,10.0,NE,3.5,-,N/A,,Clear,50,2012-12-28 16:31:00
11:52 AM,33.8,24.8,70,30.15,10.0,Calm,Calm,-,N/A,,Clear,0,2012-12-28 16:52:00
12:14 PM,33.8,26.6,75,30.14,10.0,Calm,Calm,-,N/A,,Clear,0,2012-12-28 17:14:00
12:35 PM,35.6,26.6,70,30.12,10.0,ESE,3.5,-,N/A,,Clear,110,2012-12-28 17:35:00
12:56 PM,35.6,26.6,70,30.13,10.0,Calm,Calm,-,N/A,,Clear,0,2012-12-28 17:56:00
1:17 PM,35.6,26.6,70,30.12,10.0,Calm,Calm,-,N/A,,Clear,0,2012-12-28 18:17:00
1:39 PM,37.4,26.6,65,30.11,10.0,Calm,Calm,-,N/A,,Clear,0,2012-12-28 18:39:00
2:00 PM,37.4,26.6,65,30.10,10.0,Calm,Calm,-,N/A,,Clear,0,2012-12-28 19:00:00
2:21 PM,37.4,26.6,65,30.09,10.0,Calm,Calm,-,N/A,,Clear,0,2012-12-28 19:21:00
2:43 PM,37.4,26.6,65,30.10,10.0,Calm,Calm,-,N/A,,Clear,0,2012-12-28 19:43:00
3:04 PM,37.4,26.6,65,30.10,10.0,Calm,Calm,-,N/A,,Clear,0,2012-12-28 20:04:00
3:25 PM,35.6,26.6,70,30.10,10.0,Calm,Calm,-,N/A,,Clear,0,2012-12-28 20:25:00
3:46 PM,35.6,26.6,70,30.08,10.0,Calm,Calm,-,N/A,,Clear,0,2012-12-28 20:46:00
4:08 PM,35.6,26.6,70,30.09,10.0,Calm,Calm,-,N/A,,Clear,0,2012-12-28 21:08:00
4:29 PM,35.6,26.6,70,30.08,10.0,Calm,Calm,-,N/A,,Clear,0,2012-12-28 21:29:00
4:50 PM,33.8,26.6,75,30.08,10.0,Calm,Calm,-,N/A,,Clear,0,2012-12-28 21:50:00
5:11 PM,33.8,26.6,75,30.07,10.0,Calm,Calm,-,N/A,,Clear,0,2012-12-28 22:11:00
5:33 PM,33.8,26.6,75,30.07,10.0,Calm,Calm,-,N/A,,Clear,0,2012-12-28 22:33:00
5:54 PM,32.0,26.6,80,30.08,10.0,Calm,Calm,-,N/A,,Clear,0,2012-12-28 22:54:00
6:15 PM,30.2,24.8,80,30.08,10.0,Calm,Calm,-,N/A,,Clear,0,2012-12-28 23:15:00
6:37 PM,32.0,26.6,80,30.09,10.0,Calm,Calm,-,N/A,,Clear,0,2012-12-28 23:37:00
6:58 PM,32.0,28.4,87,30.07,10.0,NNW,3.5,-,N/A,,Clear,340,2012-12-28 23:58:00
7:19 PM,32.0,28.4,87,30.09,10.0,Calm,Calm,-,N/A,,Clear,0,2012-12-29 00:19:00
7:40 PM,32.0,26.6,80,30.09,10.0,NNW,3.5,-,N/A,,Clear,340,2012-12-29 00:40:00
8:02 PM,32.0,26.6,80,30.08,10.0,Calm,Calm,-,N/A,,Clear,0,2012-12-29 01:02:00
8:23 PM,30.2,26.6,86,30.07,10.0,Calm,Calm,-,N/A,,Clear,0,2012-12-29 01:23:00
8:44 PM,30.2,26.6,86,30.08,10.0,Calm,Calm,-,N/A,,Clear,0,2012-12-29 01:44:00
9:06 PM,30.2,26.6,86,30.07,10.0,Calm,Calm,-,N/A,,Clear,0,2012-12-29 02:06:00
9:27 PM,30.2,26.6,86,30.06,10.0,Calm,Calm,-,N/A,,Clear,0,2012-12-29 02:27:00
9:48 PM,30.2,28.4,93,30.06,10.0,Calm,Calm,-,N/A,,Clear,0,2012-12-29 02:48:00
10:09 PM,30.2,28.4,93,30.05,7.0,Calm,Calm,-,N/A,,Clear,0,2012-12-29 03:09:00
10:31 PM,30.2,28.4,93,30.05,10.0,Calm,Calm,-,N/A,,Clear,0,2012-12-29 03:31:00
10:52 PM,30.2,28.4,93,30.05,7.0,Calm,Calm,-,N/A,,Clear,0,2012-12-29 03:52:00
11:13 PM,30.2,28.4,93,30.05,7.0,Calm,Calm,-,N/A,,Clear,0,2012-12-29 04:13:00
11:35 PM,30.2,28.4,93,30.02,7.0,Calm,Calm,-,N/A,,Clear,0,2012-12-29 04:35:00
11:56 PM,30.2,28.4,93,30.03,7.0,South,3.5,-,N/A,,Clear,180,2012-12-29 04:56:00